Simultaneous Nadir Overpasses (SNOs) Predictions

Prediction of SNOs between LANDSAT-8 and NOAA-19 Satellite Orbit:

Table of predicted SNOs for the next 14.0 days since TLE Epoch: 10/5/2019
Index Date (LANDSAT-8) Time (LANDSAT-8) Lat,Lon (LANDSAT-8) SZA (LANDSAT-8 ) Date (NOAA-19) Time (NOAA-19) Lat,Lon (NOAA-19) SZA (NOAA-19 ) Distance(km) Time Diff (sec)
1 10/06/2019 16:30:30 -79.14, 134.01 94.75 10/06/2019 16:30:38 -79.13, 133.91 94.77 2.65 8
2 10/08/2019 22:04:14 79.13,-129.47 86.10 10/08/2019 22:04:00 79.15,-129.53 86.11 2.38 14
3 10/08/2019 22:53:47 -78.90, 36.78 94.21 10/08/2019 22:54:53 -78.86, 40.01 93.95 69.35 66
4 10/11/2019 03:37:59 -79.14, -32.88 93.04 10/11/2019 03:37:24 -79.14, -32.72 93.03 3.41 35
5 10/11/2019 04:27:25 79.13, 134.71 86.97 10/11/2019 04:28:22 79.13, 134.61 86.98 2.30 57
6 10/13/2019 09:11:42 79.16, 63.83 87.84 10/13/2019 09:10:45 79.17, 63.78 87.83 1.76 57
7 10/13/2019 10:01:10 -79.13,-128.70 92.19 10/13/2019 10:01:47 -79.14,-128.71 92.17 0.76 37
8 10/15/2019 14:45:26 -79.20, 160.66 91.26 10/15/2019 14:44:14 -79.28, 159.52 91.30 25.39 72
9 10/15/2019 15:34:53 79.15, -32.01 88.68 10/15/2019 15:35:07 79.16, -32.09 88.69 1.89 14
10 10/17/2019 21:08:38 -79.15, 64.57 90.49 10/17/2019 21:08:33 -79.16, 64.58 90.48 0.98 5




NCC Satellite Simultaneous Nadir Overpasses (SNOs) Prediction Service
